User: anonymous   Login
Location: Ab? ar R?sh Ba?r?
(24.1861°N, 32.8847°E)
Time: 08:33:33
(UTC+00:00)
Language:

CZ-2D DEB - Orbit

View from above orbital plane
View from above orbital plane
View from above satellite
View from above satellite

Ground track
Ground track

The orbit data is extracted from the following two-line orbital elements,

1 44609U 17060B   22230.41405010  .00001431  00000-0  18427-3 0  9995
2 44609  97.6898 280.7676 0042993 276.9935  82.6390 14.81975094256869
Epoch (UTC): 18 August 2022 09:56:13
Eccentricity: 0.0042993
inclination: 97.6898°
perigee height: 593 km
apogee height: 653 km
right ascension of ascending node: 280.7676°
argument of perigee: 276.9935°
revolutions per day: 14.81975094
mean anomaly at epoch: 82.6390°
orbit number at epoch: 25686

The dashed part of the orbit path shows where the satellite is in the earth's shadow,  

DLR